Weather reports worldwide

Advertisment
St. James's Park, United Kingdom (3770): temperature & dewpoint: 22.05.2020 23:00:00 - 28.05.2020 23:00:00 (BST)St. James's Park, United Kingdom (3770): temperature -20cm & temperature -100cm: 22.05.2020 23:00:00 - 28.05.2020 23:00:00 (BST)St. James's Park, United Kingdom (3770): precipitation: 22.05.2020 23:00:00 - 28.05.2020 23:00:00 (BST)
Date & Time tt [°C] td [°C] tt -20cm [°C] tt -100cm [°C] rr [mm]
28.05.2020 23:00:00 14,4 6,9 - - 0,0
28.05.2020 22:00:00 15,4 5,0 - - 0,0
28.05.2020 21:00:00 16,4 3,0 - - 0,0
28.05.2020 20:00:00 17,3 2,3 - - 0,0
28.05.2020 19:00:00 18,4 2,5 - - 0,0
28.05.2020 18:00:00 19,9 5,0 - - 0,0
28.05.2020 17:00:00 20,7 3,2 - - 0,0
28.05.2020 16:00:00 20,5 2,9 - - 0,0
28.05.2020 15:00:00 20,2 1,0 - - 0,0
28.05.2020 14:00:00 20,8 3,7 - - 0,0
28.05.2020 13:00:00 20,1 2,9 - - 0,0
28.05.2020 12:00:00 19,4 2,9 - - 0,0
28.05.2020 11:00:00 18,9 3,7 - - 0,0
28.05.2020 10:00:00 17,4 6,3 18,4 - 0,0
28.05.2020 09:00:00 15,9 9,5 - - 0,0
28.05.2020 08:00:00 13,7 9,5 - - 0,0
28.05.2020 07:00:00 12,6 9,0 - - 0,0
28.05.2020 06:00:00 11,9 8,7 - - 0,0
28.05.2020 05:00:00 11,9 8,7 - - 0,0
28.05.2020 04:00:00 12,3 9,2 - - 0,0
28.05.2020 03:00:00 13,4 8,1 - - 0,0
28.05.2020 02:00:00 14,1 8,0 - - 0,0
28.05.2020 01:00:00 14,9 9,4 - - 0,0
28.05.2020 00:00:00 15,2 9,2 - - 0,0
27.05.2020 23:00:00 15,8 8,9 - - 0,0
27.05.2020 22:00:00 17,1 9,6 - - 0,0
27.05.2020 21:00:00 19,2 9,8 - - 0,0
27.05.2020 20:00:00 21,5 11,2 - - 0,0
27.05.2020 19:00:00 23,0 10,9 - - 0,0
27.05.2020 18:00:00 24,4 11,3 - - 0,0
27.05.2020 17:00:00 23,3 10,8 - - 0,0
27.05.2020 16:00:00 23,9 10,7 - - 0,0
27.05.2020 15:00:00 23,7 10,3 - - 0,0
27.05.2020 14:00:00 23,4 11,0 - - 0,0
27.05.2020 13:00:00 23,8 10,1 - - 0,0
27.05.2020 12:00:00 22,9 9,0 - - 0,0
27.05.2020 11:00:00 21,6 9,2 - - 0,0
27.05.2020 10:00:00 21,0 9,8 18,7 - 0,0
27.05.2020 09:00:00 19,2 10,2 - - 0,0
27.05.2020 08:00:00 16,5 9,6 - - 0,0
27.05.2020 07:00:00 15,3 10,1 - - 0,0
27.05.2020 06:00:00 14,5 9,2 - - 0,0
27.05.2020 05:00:00 13,9 8,6 - - 0,0
27.05.2020 04:00:00 14,5 8,5 - - 0,0
27.05.2020 03:00:00 15,2 8,4 - - 0,0
27.05.2020 02:00:00 15,1 7,9 - - 0,0
27.05.2020 01:00:00 15,6 7,4 - - 0,0
27.05.2020 00:00:00 16,2 7,5 - - 0,0
26.05.2020 23:00:00 17,6 9,3 - - 0,0
26.05.2020 22:00:00 21,7 9,1 - - 0,0
26.05.2020 21:00:00 22,2 10,9 - - 0,0
26.05.2020 20:00:00 23,6 9,3 - - 0,0
26.05.2020 19:00:00 24,4 5,9 - - 0,0
26.05.2020 18:00:00 26,1 4,2 - - 0,0
26.05.2020 17:00:00 26,2 7,1 - - 0,0
26.05.2020 16:00:00 25,7 6,2 - - 0,0
26.05.2020 15:00:00 25,3 7,6 - - 0,0
26.05.2020 14:00:00 25,6 8,5 - - 0,0
26.05.2020 13:00:00 24,1 9,2 - - 0,0
26.05.2020 12:00:00 23,3 8,1 - - 0,0
26.05.2020 11:00:00 22,1 7,8 - - 0,0
26.05.2020 10:00:00 21,3 8,7 17,4 - 0,0
26.05.2020 09:00:00 20,1 8,1 - - 0,0
26.05.2020 08:00:00 16,9 9,2 - - 0,0
26.05.2020 07:00:00 14,6 10,7 - - 0,0
26.05.2020 06:00:00 12,0 9,4 - - 0,0
26.05.2020 05:00:00 11,9 9,2 - - 0,0
26.05.2020 04:00:00 12,5 9,2 - - 0,0
26.05.2020 03:00:00 13,5 8,6 - - 0,0
26.05.2020 02:00:00 14,4 9,0 - - 0,0
26.05.2020 01:00:00 15,4 9,6 - - 0,0
26.05.2020 00:00:00 16,3 9,8 - - 0,0
25.05.2020 23:00:00 17,6 10,0 - - 0,0
25.05.2020 22:00:00 19,1 10,0 - - 0,0
25.05.2020 21:00:00 20,6 10,0 - - 0,0
25.05.2020 20:00:00 22,4 10,0 - - 0,0
25.05.2020 19:00:00 23,9 4,6 - - 0,0
25.05.2020 18:00:00 24,3 6,1 - - 0,0
25.05.2020 17:00:00 25,3 5,3 - - 0,0
25.05.2020 16:00:00 24,5 6,9 - - 0,0
25.05.2020 15:00:00 25,1 6,8 - - 0,0
25.05.2020 14:00:00 24,1 7,3 - - 0,0
25.05.2020 13:00:00 23,3 6,7 - - 0,0
25.05.2020 12:00:00 22,6 8,4 - - 0,0
25.05.2020 11:00:00 21,5 9,1 - - 0,0
25.05.2020 10:00:00 20,0 8,9 20,0 - 0,0
25.05.2020 09:00:00 18,0 8,3 - - 0,0
25.05.2020 08:00:00 15,3 8,6 - - 0,0
25.05.2020 07:00:00 12,7 8,2 - - 0,0
25.05.2020 06:00:00 11,1 9,2 - - 0,0
25.05.2020 05:00:00 11,1 8,7 - - 0,0
25.05.2020 04:00:00 11,5 7,8 - - 0,0
25.05.2020 03:00:00 12,2 8,2 - - 0,0
25.05.2020 02:00:00 13,6 8,2 - - 0,0
25.05.2020 01:00:00 15,3 8,8 - - 0,0
25.05.2020 00:00:00 15,2 9,7 - - 0,0
24.05.2020 23:00:00 14,8 9,0 - - 0,0
24.05.2020 22:00:00 16,8 8,2 - - 0,0
24.05.2020 21:00:00 18,8 8,3 - - 0,0
24.05.2020 20:00:00 20,1 7,3 - - 0,0
24.05.2020 19:00:00 20,6 6,9 - - 0,0
24.05.2020 18:00:00 21,1 7,6 - - 0,0
24.05.2020 17:00:00 21,1 6,7 - - 0,0
24.05.2020 16:00:00 22,7 7,7 - - 0,0
24.05.2020 15:00:00 21,8 8,3 - - 0,0
24.05.2020 14:00:00 20,0 8,0 - - 0,0
24.05.2020 13:00:00 19,2 8,3 - - 0,0
24.05.2020 12:00:00 19,2 8,9 - - 0,0
24.05.2020 11:00:00 17,4 8,7 - - 0,0
24.05.2020 10:00:00 15,9 8,7 16,9 24,7 0,0
24.05.2020 09:00:00 14,7 9,2 - - 0,0
24.05.2020 08:00:00 13,4 9,2 - - 0,0
24.05.2020 07:00:00 12,1 8,5 - - 0,0
24.05.2020 06:00:00 11,5 7,9 - - 0,0
24.05.2020 05:00:00 11,6 7,8 - - 0,0
24.05.2020 04:00:00 11,1 7,2 - - 0,0
24.05.2020 03:00:00 11,2 6,5 - - 0,0
24.05.2020 02:00:00 11,9 6,4 - - 0,0
24.05.2020 01:00:00 12,1 6,4 - - 0,0
24.05.2020 00:00:00 12,5 6,0 - - 0,0
23.05.2020 23:00:00 12,9 5,1 - - 0,0
23.05.2020 22:00:00 13,8 4,3 - - 0,0
23.05.2020 21:00:00 14,6 3,0 - - 0,0
23.05.2020 20:00:00 15,4 2,7 - - 0,0
23.05.2020 19:00:00 16,5 3,4 - - 0,0
23.05.2020 18:00:00 17,2 2,3 - - 0,0
23.05.2020 17:00:00 18,5 3,8 - - 0,0
23.05.2020 16:00:00 19,0 3,3 - - 0,0
23.05.2020 15:00:00 18,8 3,8 - - 0,2
23.05.2020 14:00:00 15,3 8,1 - - 1,0
23.05.2020 13:00:00 16,2 4,6 - - 0,0
23.05.2020 12:00:00 17,2 3,5 - - 0,0
23.05.2020 11:00:00 17,8 5,0 - - 0,0
23.05.2020 10:00:00 15,1 5,2 16,9 - 0,0
23.05.2020 09:00:00 14,4 6,5 - - 0,0
23.05.2020 08:00:00 13,4 6,8 - - 0,0
23.05.2020 07:00:00 12,1 7,2 - - 0,0
23.05.2020 06:00:00 11,7 7,3 - - 0,0
23.05.2020 05:00:00 11,9 7,6 - - 0,0
23.05.2020 04:00:00 12,1 7,0 - - 0,0
23.05.2020 03:00:00 12,5 8,0 - - 0,0
23.05.2020 02:00:00 12,9 8,5 - - 0,0
23.05.2020 01:00:00 13,2 8,6 - - 0,0
23.05.2020 00:00:00 13,8 9,0 - - 0,0
22.05.2020 23:00:00 14,5 9,5 - - 0,0

tt = temperature
td = dewpoint
tt -20cm = temperature -20cm
tt -100cm = temperature -100cm
rr = precipitation

Next stations